This demonstration page uses our WeatherBlox Daily Observations layout. Learn more.

Left ArrowRight Arrow

34.02893, -84.19858

Hourly Observations for February 14, 2022

Temp ( °F °C ) Dew Point ( °F °C ) Humidity (%) Winds ( mph kmh ) Pressure ( in mb ) Visibility ( mi km ) Precip ( " mm )
12:53 am 00:53 Clear 33 0.6 15 -9.4 47 47 WSW 5 7 30.25 1025 10 16 0.00 0.00
1:53 am 01:53 Clear 32 0 15 -9.4 50 50 W 5 7 30.26 1025 10 16 0.00 0.00
2:53 am 02:53 Clear 31 -0.6 15 -9.4 52 52 W 3 6 30.25 1025 10 16 0.00 0.00
3:53 am 03:53 Clear 30 -1.1 16 -8.9 56 56 W 5 7 30.26 1025 10 16 0.00 0.00
4:53 am 04:53 Clear 29 -1.7 16 -8.9 58 58 W 5 7 30.28 1025 10 16 0.00 0.00
5:53 am 05:53 Clear 30 -1.1 16 -8.9 56 56 WNW 6 9 30.30 1026 10 16 0.00 0.00
6:53 am 06:53 Clear 29 -1.7 16 -8.9 58 58 W 6 9 30.33 1027 10 16 0.00 0.00
7:53 am 07:53 Sunny 31 -0.6 16 -8.9 54 54 WNW 5 7 30.34 1027 10 16 0.00 0.00
8:53 am 08:53 Sunny 35 1.7 17 -8.3 48 48 NW 7 11 30.35 1028 10 16 0.00 0.00
9:53 am 09:53 Sunny 39 3.9 18 -7.8 43 43 VRB 6 9 30.35 1028 10 16 0.00 0.00
10:53 am 10:53 Sunny 44 6.7 20 -6.7 38 38 WNW 14 22 30.36 1028 10 16 0.00 0.00
11:53 am 11:53 Sunny 46 7.8 20 -6.7 35 35 WNW 14 22 30.37 1029 10 16 0.00 0.00
12:53 pm 12:53 Sunny 48 8.9 19 -7.2 32 32 NW 14 22 30.36 1028 10 16 0.00 0.00
1:53 pm 13:53 Sunny 50 10 20 -6.7 30 30 W 9 15 30.30 1026 10 16 0.00 0.00
2:53 pm 14:53 Sunny 53 11.7 21 -6.1 28 28 VRB 6 9 30.29 1026 10 16 0.00 0.00
3:53 pm 15:53 Sunny 54 12.2 21 -6.1 28 28 W 14 22 30.29 1026 10 16 0.00 0.00
4:53 pm 16:53 Sunny 54 12.2 22 -5.6 29 29 W 10 17 30.29 1026 10 16 0.00 0.00
5:53 pm 17:53 Sunny 52 11.1 22 -5.6 31 31 W 6 9 30.31 1026 10 16 0.00 0.00
6:53 pm 18:53 Clear 49 9.4 22 -5.6 35 35 WNW 3 6 30.34 1027 10 16 0.00 0.00
7:53 pm 19:53 Clear 46 7.8 23 -5 40 40 W 3 6 30.36 1028 9 14 0.00 0.00
8:53 pm 20:53 Clear 40 4.4 24 -4.4 53 53 Calm 30.38 1029 8 13 0.00 0.00
9:53 pm 21:53 Clear 37 2.8 26 -3.3 65 65 Calm 30.40 1029 8 13 0.00 0.00
10:53 pm 22:53 Clear 36 2.2 26 -3.3 67 67 Calm 30.40 1030 8 13 0.00 0.00
11:53 pm 23:53 Clear 33 0.6 26 -3.3 75 75 Calm 30.42 1030 7 11 0.00 0.00

Powered by AerisWeather